{"data":{"norad_id":53909,"intl_designator":"2022-119Z","name":"STARLINK-4796","alt_names":[],"object_type":"PAYLOAD","status":"ACTIVE","operator":null,"country":"US","launch_date":"2022-09-24","launch_site_code":"AFETR","launch_vehicle":null,"mission":null,"orbit_class":"UNKNOWN","rcs_meters":null,"size_class":null,"mass_kg":null,"dimensions":null,"purposes":["comms"],"wikipedia_slug":null,"has_3d_model":false,"image_url":null,"decayed_at":null,"tle_current":{"epoch":"2026-05-24T22:45:34.090272Z","epoch_age_seconds":79237,"freshness":"FRESH","line1":"1 53909U 22119Z   26144.94831123 -.00000258  00000+0  18589-5 0  9990","line2":"2 53909  53.2122 332.0427 0001358  86.4703 273.6444 15.08829450203332","mean_motion":15.0882945,"eccentricity":0.0001358,"inclination_deg":53.2122,"raan_deg":332.0427,"arg_perigee_deg":86.4703,"mean_anomaly_deg":273.6444,"bstar":1.8589e-6,"rev_number":20333,"period_min":95.438221993877,"perigee_km":538.8361837454,"apogee_km":540.71508881742,"semimajor_km":6917.9126362814,"source":"CELESTRAK","updated_at":"2026-05-25T13:38:17.608768Z"}}}